Date String (YYYY-MM-DD hh:mm:ss) UTC,Instrument flags,Ambient pressure (hPa),Sample flow (lpm),Bypass flow (lpm),Sample temperature (°C),Ambient temperature (°C),ASC tube jacket temperature (°C),LED temperature (°C),Box temperature (°C),Sample RH (%),Span deviation,Mass concentration (μg/m³),Mass concentration (μg/m³),Mass concentration (μg/m³)
DateTimeUTC,F1_M11,P_M11,Q1_M11,Q2_M11,T1_M11,T2_M11,T3_M11,T4_M11,T5_M11,U1_M11,ZSPAN_M11,X2_M11,X0_M11,X1_M11
2021-10-10 23:00:00,,0820.8,5.01,0.00,30.0,28.8,00.0,39.0,31.7,10.8,0000.0,0002.38,0003.83,0002.22
2021-10-10 23:01:00,,0820.9,5.00,0.00,30.0,28.9,00.0,39.0,31.8,10.8,0000.0,0002.38,0003.83,0002.22
2021-10-10 23:02:00,,0820.9,5.00,0.00,30.0,29.0,00.0,39.1,31.9,10.9,0000.0,0002.41,0003.93,0002.22
2021-10-10 23:03:00,,0820.9,5.00,0.00,30.1,29.1,00.0,39.1,31.9,10.7,0000.0,0002.40,0003.82,0002.21
2021-10-10 23:04:00,,0821.0,5.02,0.00,30.1,29.1,00.0,39.1,31.9,10.7,0000.0,0002.40,0003.94,0002.20
2021-10-10 23:05:00,,0820.9,4.99,0.00,30.1,29.2,00.0,39.1,31.9,10.7,0000.0,0002.39,0003.51,0002.19
2021-10-10 23:06:00,,0820.9,5.00,0.00,30.1,29.3,00.0,39.1,31.9,10.6,0000.0,0002.39,0003.06,0002.19
2021-10-10 23:07:00,,0820.9,5.01,0.00,30.2,29.3,00.0,39.1,32.0,10.5,0000.0,0002.39,0003.05,0002.20
2021-10-10 23:08:00,,0820.9,4.99,0.00,30.2,29.3,00.0,39.1,32.0,10.4,0000.0,0002.40,0003.04,0002.21
2021-10-10 23:09:00,,0820.9,5.00,0.00,30.2,29.4,00.0,39.2,32.0,10.3,0000.0,0002.42,0003.03,0002.21
2021-10-10 23:10:00,,0820.9,5.01,0.00,30.2,29.4,00.0,39.2,32.0,10.3,0000.0,0002.41,0003.05,0002.21
2021-10-10 23:11:00,,0820.9,5.00,0.00,30.2,29.4,00.0,39.2,32.0,10.4,0000.0,0002.43,0003.17,0002.21
2021-10-10 23:12:00,,0820.9,4.99,0.00,30.2,28.4,00.0,39.2,31.8,10.4,0000.0,0002.45,0003.26,0002.20
2021-10-10 23:13:00,,0820.9,5.01,0.00,30.1,26.6,00.0,39.2,31.3,10.5,0000.0,0002.43,0003.20,0002.20
2021-10-10 23:14:00,,0820.9,5.00,0.00,30.0,26.5,00.0,39.1,31.2,10.6,0000.0,0002.45,0003.26,0002.20
2021-10-10 23:15:00,,0820.9,4.99,0.00,29.9,26.9,00.0,39.1,31.3,10.7,0000.0,0002.45,0003.13,0002.22
2021-10-10 23:16:00,,0820.9,5.00,0.00,29.9,27.3,00.0,39.1,31.4,10.6,0000.0,0002.46,0003.10,0002.23
2021-10-10 23:17:00,,0820.9,5.01,0.00,29.8,27.7,00.0,39.0,31.5,10.6,0000.0,0002.45,0003.10,0002.23
2021-10-10 23:18:00,,0820.9,4.99,0.00,29.8,28.0,00.0,39.0,31.5,10.6,0000.0,0002.48,0003.18,0002.23
2021-10-10 23:19:00,,0820.9,5.01,0.00,29.9,28.2,00.0,39.0,31.6,10.6,0000.0,0002.50,0003.22,0002.25
2021-10-10 23:20:00,,0820.9,5.00,0.00,29.9,28.4,00.0,39.0,31.6,10.6,0000.0,0002.50,0003.21,0002.26
2021-10-10 23:21:00,,0821.0,5.00,0.00,29.9,28.5,00.0,39.0,31.6,10.5,0000.0,0002.51,0003.23,0002.27
2021-10-10 23:22:00,,0821.0,5.02,0.00,29.9,28.7,00.0,39.0,31.7,10.5,0000.0,0002.50,0003.14,0002.28
2021-10-10 23:23:00,,0820.9,4.99,0.00,29.9,28.7,00.0,39.0,31.7,10.4,0000.0,0002.49,0003.04,0002.29
2021-10-10 23:24:00,,0820.9,5.01,0.00,30.0,28.8,00.0,39.0,31.7,10.3,0000.0,0002.47,0003.02,0002.30
2021-10-10 23:25:00,,0821.0,5.00,0.00,30.0,28.9,00.0,39.0,31.7,10.3,0000.0,0002.47,0002.95,0002.29
2021-10-10 23:26:00,,0821.0,5.00,0.00,30.0,29.0,00.0,39.0,31.8,10.3,0000.0,0002.49,0002.99,0002.28
2021-10-10 23:27:00,,0821.0,5.01,0.00,30.0,29.1,00.0,39.0,31.9,10.3,0000.0,0002.52,0003.07,0002.28
2021-10-10 23:28:00,,0821.0,5.00,0.00,30.1,29.1,00.0,39.1,31.9,10.2,0000.0,0002.55,0003.16,0002.28
2021-10-10 23:29:00,,0820.9,4.99,0.00,30.1,29.2,00.0,39.1,31.9,10.2,0000.0,0002.55,0003.15,0002.28
2021-10-10 23:30:00,,0820.9,5.01,0.00,30.1,29.2,00.0,39.1,31.9,10.1,0000.0,0002.54,0003.16,0002.27
2021-10-10 23:31:00,,0821.0,5.00,0.00,30.1,29.3,00.0,39.1,31.9,10.0,0000.0,0002.54,0003.20,0002.26
2021-10-10 23:32:00,,0821.0,5.00,0.00,30.1,29.3,00.0,39.1,31.9,10.1,0000.0,0002.53,0003.19,0002.25
2021-10-10 23:33:00,,0821.0,5.00,0.00,30.2,29.3,00.0,39.1,31.9,10.0,0000.0,0002.51,0003.48,0002.24
2021-10-10 23:34:00,,0821.0,5.00,0.00,30.2,29.4,00.0,39.2,32.0,10.1,0000.0,0002.52,0004.03,0002.25
2021-10-10 23:35:00,,0821.0,5.00,0.00,30.2,29.4,00.0,39.2,32.0,10.0,0000.0,0002.54,0004.04,0002.26
2021-10-10 23:36:00,,0821.0,5.00,0.00,30.2,29.4,00.0,39.2,32.0,10.0,0000.0,0002.54,0004.04,0002.26
2021-10-10 23:37:00,,0821.0,4.99,0.00,30.2,29.3,00.0,39.2,31.9,10.0,0000.0,0002.51,0003.96,0002.26
2021-10-10 23:38:00,,0821.0,5.01,0.00,30.2,27.5,00.0,39.2,31.5,10.0,0000.0,0002.47,0003.83,0002.26
2021-10-10 23:39:00,,0820.9,5.00,0.00,30.0,26.5,00.0,39.2,31.2,10.1,0000.0,0002.44,0003.73,0002.27
2021-10-10 23:40:00,,0821.0,5.01,0.00,29.9,26.6,00.0,39.1,31.3,10.2,0000.0,0002.42,0003.66,0002.28
2021-10-10 23:41:00,,0821.0,4.99,0.00,29.8,27.0,00.0,39.1,31.3,10.3,0000.0,0002.42,0003.67,0002.28
2021-10-10 23:42:00,,0821.0,5.01,0.00,29.8,27.4,00.0,39.0,31.4,10.3,0000.0,0002.43,0003.68,0002.29
2021-10-10 23:43:00,,0821.0,5.00,0.00,29.8,27.7,00.0,39.0,31.4,10.3,0000.0,0002.43,0003.65,0002.30
2021-10-10 23:44:00,,0821.0,5.00,0.00,29.8,28.0,00.0,39.0,31.5,10.3,0000.0,0002.49,0003.50,0002.30
2021-10-10 23:45:00,,0821.0,5.00,0.00,29.8,28.2,00.0,39.0,31.5,10.2,0000.0,0002.52,0002.97,0002.30
2021-10-10 23:46:00,,0821.0,5.01,0.00,29.8,28.4,00.0,39.0,31.5,10.2,0000.0,0002.52,0002.98,0002.30
2021-10-10 23:47:00,,0821.0,5.01,0.00,29.9,28.5,00.0,39.0,31.6,10.1,0000.0,0002.51,0003.00,0002.30
2021-10-10 23:48:00,,0821.1,5.00,0.00,29.9,28.6,00.0,39.0,31.6,10.1,0000.0,0002.51,0003.10,0002.30
2021-10-10 23:49:00,,0821.1,4.99,0.00,29.9,28.7,00.0,39.0,31.7,10.1,0000.0,0002.54,0003.36,0002.30
2021-10-10 23:50:00,,0821.0,5.01,0.00,29.9,28.8,00.0,39.0,31.7,10.1,0000.0,0002.53,0003.62,0002.29
2021-10-10 23:51:00,,0821.1,5.00,0.00,29.9,28.9,00.0,39.0,31.7,09.9,0000.0,0002.52,0003.64,0002.28
2021-10-10 23:52:00,,0821.0,5.00,0.00,30.0,29.0,00.0,39.0,31.7,09.9,0000.0,0002.51,0003.62,0002.27
2021-10-10 23:53:00,,0821.1,5.00,0.00,30.0,29.0,00.0,39.0,31.7,09.9,0000.0,0002.48,0003.53,0002.25
2021-10-10 23:54:00,,0821.0,5.01,0.00,30.0,29.1,00.0,39.0,31.8,09.8,0000.0,0002.51,0003.64,0002.24
2021-10-10 23:55:00,,0821.0,4.99,0.00,30.0,29.1,00.0,39.0,31.8,09.8,0000.0,0002.52,0003.77,0002.24
2021-10-10 23:56:00,,0821.1,5.00,0.00,30.0,29.1,00.0,39.0,31.8,09.8,0000.0,0002.49,0003.68,0002.24
2021-10-10 23:57:00,,0821.1,5.02,0.00,30.0,29.2,00.0,39.1,31.8,09.8,0000.0,0002.48,0003.67,0002.23
2021-10-10 23:58:00,,0821.0,5.01,0.00,30.1,29.2,00.0,39.1,31.8,09.7,0000.0,0002.47,0003.70,0002.23
2021-10-10 23:59:00,,0821.0,5.00,0.00,30.1,29.2,00.0,39.1,31.8,09.7,0000.0,0002.47,0003.64,0002.24
